7 * 24
多渠道服务支持
ONEWEB-0422是英国OneWeb卫星星座的一颗低轨通信卫星,于2022年2月10日发射入轨。OneWeb星座旨在构建全球卫星互联网,采用分阶段建设方案,该卫星属于第一阶段部署的648颗Ku/Ka波段低轨卫星之一,运行于约1200公里轨道高度。它可为全球范围内偏远地区、海陆空移动场景提供低延迟宽带互联网接入服务,同时也支持面向企业及政府的通信应用,助力填补全球数字鸿沟,推动全域网络覆盖。
英国
(GB)
| 数据来源 | 国际轨道数据 |
| 星历时间: | 2026-09-15T20:22:20+0800 11小时前 查看轨道信息 |
| 半长轴: | 7571.856km |
| 偏心率: | 0.0002093 |
| 轨道倾角: | 87.920° |
| 近地点辐角 | 84.281° |
| 升交点赤经 | 347.923° |
| 平近点角 | 275.856° |
| 近地点: | 1192.134km |
| 远地点: | 1195.304km |
| 周期: | 109.286分钟 |
| 每日圈数: | 13.176477 |